Carbondale, IL

1:36 PM CDT on October 23, 2019 (GMT -0500)
Southern Illinois

Weather History for KMDH - July, 2019

Change the Weather History Date:

Thursday, July 11, 2019

  Actual Average Record
Temperature  
Mean Temperature 80 °F -  
Max Temperature 88 °F 90 °F 107 °F (1930)
Min Temperature 71 °F 68 °F 50 °F (1953)
Cooling Degree Days 15    
Growing Degree Days 30 (Base 50)    
Moisture  
Dew Point 68 °F    
Average Humidity 71    
Maximum Humidity 93    
Minimum Humidity 48    
Precipitation  
Precipitation 0.00 in - - ()
Sea Level Pressure  
Sea Level Pressure 29.93 in    
Wind  
Wind Speed 6 mph (NW)    
Max Wind Speed 12 mph    
Max Gust Speed 20 mph    
Visibility 10 miles    
Events      
Averages and records for this station are not official NWS values.
T = Trace of Precipitation, MM = Missing Value Source: NWS Daily Summary

Daily Weather History Graph

Daily Weather History Graph

Search for Another Location

Airport or City:

Astronomy

Jul. 11, 2019 Rise Set
Actual Time 5:44 AM CDT 8:20 PM CDT
Civil Twilight 5:13 AM CDT 8:51 PM CDT
Nautical Twilight 4:35 AM CDT 9:29 PM CDT
Astronomical Twilight 3:52 AM CDT 10:11 PM CDT
Moon 3:36 PM CDT (7/11) 1:51 AM CDT (7/11)
Length of Visible Light 15h 37m
Length of Day
14h 36m
Waxing Gibbous, 74% of the Moon is Illuminated
Jul 11
Waxing Gibbous
Jul 16
Full
Jul 24
Last Quarter
Jul 31
New
Aug 7
First Quarter

Hourly Weather History & Observations

Time (CDT) Temp. Heat Index Dew Point Humidity Pressure Visibility Wind Dir Wind Speed Gust Speed Precip Events Conditions
12:52 AM 77.0 °F - 72.0 °F 84% 29.93 in 10.0 mi West 5.8 mph - N/A   Clear
1:52 AM 73.9 °F - 72.0 °F 93% 29.94 in 10.0 mi SSW 4.6 mph - N/A   Clear
2:52 AM 75.0 °F - 71.1 °F 87% 29.93 in 10.0 mi West 4.6 mph - N/A   Clear
3:52 AM 73.9 °F - 71.1 °F 91% 29.92 in 10.0 mi West 4.6 mph - N/A   Clear
4:52 AM 72.0 °F - 70.0 °F 93% 29.93 in 10.0 mi NW 4.6 mph - N/A   Clear
5:52 AM 72.0 °F - 70.0 °F 93% 29.94 in 10.0 mi NW 6.9 mph - N/A   Clear
6:52 AM 73.9 °F - 70.0 °F 87% 29.94 in 10.0 mi NW 8.1 mph - N/A   Clear
7:52 AM 77.0 °F - 69.1 °F 76% 29.96 in 10.0 mi NW 8.1 mph - N/A   Clear
8:52 AM 80.1 °F 82.3 °F 66.9 °F 64% 29.96 in 10.0 mi North 9.2 mph - N/A   Clear
9:52 AM 82.0 °F 84.5 °F 66.9 °F 60% 29.98 in 10.0 mi North 5.8 mph - N/A   Clear
10:52 AM 84.0 °F 86.3 °F 66.0 °F 55% 29.95 in 10.0 mi NNW 6.9 mph - N/A   Clear
11:52 AM 84.0 °F 86.3 °F 66.0 °F 55% 29.95 in 10.0 mi Variable 5.8 mph - N/A   Partly Cloudy
12:52 PM 87.1 °F 89.2 °F 66.0 °F 49% 29.94 in 10.0 mi NW 10.4 mph - N/A   Partly Cloudy
1:52 PM 87.1 °F 88.9 °F 64.9 °F 48% 29.91 in 10.0 mi NNW 3.5 mph - N/A   Scattered Clouds
2:52 PM 84.9 °F 87.6 °F 66.9 °F 55% 29.91 in 10.0 mi NW 8.1 mph - N/A   Mostly Cloudy
3:52 PM 88.0 °F 90.7 °F 66.9 °F 49% 29.90 in 10.0 mi WNW 10.4 mph - N/A   Mostly Cloudy
4:52 PM 84.0 °F 86.3 °F 66.0 °F 55% 29.90 in 10.0 mi NNW 5.8 mph - N/A   Mostly Cloudy
5:52 PM 86.0 °F 88.8 °F 66.9 °F 53% 29.89 in 10.0 mi North 11.5 mph 19.6 mph N/A   Mostly Cloudy
6:52 PM 82.9 °F 85.0 °F 66.0 °F 56% 29.89 in 10.0 mi North 9.2 mph - N/A   Clear
7:52 PM 80.1 °F 82.1 °F 66.0 °F 62% 29.90 in 10.0 mi NNW 6.9 mph - N/A   Clear
8:52 PM 75.9 °F - 66.9 °F 74% 29.90 in 10.0 mi NNW 3.5 mph - N/A   Clear
9:52 PM 73.9 °F - 68.0 °F 82% 29.92 in 10.0 mi Calm Calm - N/A   Clear
10:52 PM 72.0 °F - 68.0 °F 87% 29.92 in 10.0 mi Calm Calm - N/A   Clear
11:52 PM 71.1 °F - 68.0 °F 90% 29.92 in 10.0 mi Calm Calm - N/A   Clear